User: anonymous   Login
Location: Unspecified
(0.0000°N, 0.0000°E)
Time: 21:57:49
(UTC+00:00)
Language:

Uosat F - Orbit

View from above orbital plane
View from above orbital plane
View from above satellite
View from above satellite

Ground track
Ground track

The orbit data is extracted from the following two-line orbital elements,

1 21575U 91050B   18343.70289009 +.00000012 +00000-0 +18133-4 0  9992
2 21575 098.7109 016.7755 0008205 126.1095 234.0854 14.40865972439116
Epoch (UTC): 09 December 2018 16:52:09
Eccentricity: 0.0008205
inclination: 98.7109°
perigee height: 750 km
apogee height: 761 km
right ascension of ascending node: 16.7755°
argument of perigee: 126.1095°
revolutions per day: 14.40865972
mean anomaly at epoch: 234.0854°
orbit number at epoch: 43911

The dashed part of the orbit path shows where the satellite is in the earth's shadow,  

DLR